This is the latest recevied weather packets stored in our database for station/object W1RCP. If no packets are shown the sender has not sent any weather packets the latest 10 day(s).
| Time | Temp. | Humidity | Pressure | Rain* | Wind** | Luminosity | Snow |
|---|---|---|---|---|---|---|---|
| 1778095506 | 31.11° C | 39% | 1026.1 hPa | 0 mm | - | 799 W/m² | - |
| 1778095201 | 31.11° C | 40% | 1026.3 hPa | 0 mm | - | 781 W/m² | - |
| 1778094899 | 31.67° C | 40% | 1026 hPa | 0 mm | - | 797 W/m² | - |
| 1778094595 | 31.67° C | 40% | 1026.2 hPa | 0 mm | - | 799 W/m² | - |
| 1778094292 | 31.67° C | 39% | 1026.3 hPa | 0 mm | - | 806 W/m² | - |
| 1778093988 | 31.67° C | 38% | 1026.3 hPa | 0 mm | - | 792 W/m² | - |
| 1778093686 | 31.11° C | 41% | 1026.4 hPa | 0 mm | - | 832 W/m² | - |
| 1778093382 | 31.11° C | 41% | 1026.2 hPa | 0 mm | - | 845 W/m² | - |
| 1778093079 | 31.67° C | 41% | 1026.3 hPa | 0 mm | - | 844 W/m² | - |
| 1778092777 | 31.11° C | 41% | 1026.5 hPa | 0 mm | - | 859 W/m² | - |
| 1778092472 | 30.56° C | 41% | 1026.5 hPa | 0 mm | - | 853 W/m² | - |
| 1778092169 | 31.11° C | 40% | 1026.5 hPa | 0 mm | - | 851 W/m² | - |
| 1778091867 | 30.56° C | 41% | 1026.6 hPa | 0 mm | - | 880 W/m² | - |
| 1778091564 | 31.11° C | 41% | 1026.6 hPa | 0 mm | - | 869 W/m² | - |
| 1778091262 | 30.56° C | 43% | 1026.8 hPa | 0 mm | - | 865 W/m² | - |
| 1778090958 | 30.56° C | 43% | 1026.8 hPa | 0 mm | - | 860 W/m² | - |
| 1778090654 | 30.56° C | 41% | 1026.8 hPa | 0 mm | - | 885 W/m² | - |
| 1778090352 | 31.11° C | 42% | 1026.8 hPa | 0 mm | - | 887 W/m² | - |
| 1778090049 | 30.56° C | 43% | 1027 hPa | 0 mm | - | 894 W/m² | - |
| 1778089745 | 30.56° C | 42% | 1026.9 hPa | 0 mm | - | 890 W/m² | - |
| 1778089443 | 30° C | 45% | 1026.9 hPa | 0 mm | - | 894 W/m² | - |
| 1778089140 | 30° C | 46% | 1027 hPa | 0 mm | - | 892 W/m² | - |
| 1778088836 | 30° C | 45% | 1027.1 hPa | 0 mm | - | 858 W/m² | - |
| 1778088534 | 30° C | 46% | 1027.2 hPa | 0 mm | - | 896 W/m² | - |
| 1778088230 | 30° C | 44% | 1027.3 hPa | 0 mm | - | 894 W/m² | - |
* Rain latest hour (hover to see other rain measurements)
** Current wind speed in m/s (hover to see current wind gust speed)